Location: Central Falls
(41.8900°N, 71.3929°W)
Time: 12:55:34
(UTC+00:00)

Courier 1B Rocket - Pass Details

Date: 04 December 2023
Orbit: 920 x 1202 km, 28.2° (Epoch: 01 March)

Event Time Altitude Azimuth Distance (km) Brightness Sun altitude
Rises 16:50:53 0° 222° (SW) 3,709 8.8 25.7°
Reaches altitude 10° 16:54:36 10° 203° (SSW) 2,710 8.8 25.7°
Maximum altitude 16:58:35 17° 165° (SSE) 2,197 8.5 25.6°
Drops below altitude 10° 17:02:28 10° 127° (SE) 2,631 7.8 25.5°
Sets 17:06:00 0° 107° (ESE) 3,555 8.1 25.5°
